Wind_Speed
4 4 4 5 4 4 3 3 3 3 3 3 3 3 2 3 2 3 3 3 2 2 2 2 2 2 2 2 3 3 3 3 3 2 2 2 2 3 3 4 4 4 4
5 5 5 5 5 5 4 4 4 4 4 4 4 3 3 3 4 4 3 3 3 3 3 3 3 2 2 3 3 3 3 3 3 3 3 3 3 3 3 4 4 5 5
5 5 6 6 5 5 5 5 5 5 4 4 4 4 3 3 3 3 3 3 3 3 3 3 3 3 4 3 3 4 4 3 3 3 3 3 3 3 3 4 4 5 5
6 5 6 6 6 7 7 7 6 6 5 5 5 4 4 3 3 3 3 3 3 3 4 4 4 4 5 4 4 4 4 4 4 4 3 4 4 3 3 4 5 5 6
7 7 6 6 6 7 7 7 7 7 6 5 5 5 4 4 4 4 4 4 3 3 3 3 4 4 5 5 5 5 5 5 5 5 4 4 4 4 4 4 5 5 6
8 7 7 7 7 7 7 7 8 7 7 6 7 6 6 6 5 5 5 5 5 5 4 5 5 5 5 5 5 6 5 5 5 5 5 5 5 5 5 5 5 5 6
9 9 9 8 8 8 8 8 8 8 7 7 7 7 7 6 5 5 5 5 5 5 5 6 6 5 5 5 6 6 6 6 6 6 5 5 6 6 6 7 7 7 7
10 10 10 10 10 10 9 9 9 8 8 8 7 6 6 6 6 6 6 6 6 6 6 6 6 6 6 5 5 6 6 6 6 6 6 6 6 7 7 7 7 7 7
11 10 10 11 11 11 11 10 9 8 8 7 7 7 7 7 7 6 6 6 6 6 7 6 6 5 5 5 5 5 5 6 6 6 7 7 7 8 8 8 8 8 8
9 10 10 11 11 11 11 11 10 9 8 8 8 7 7 7 7 6 6 6 6 7 7 6 6 6 6 5 5 5 5 6 6 7 7 7 8 8 9 9 9 8 8
9 9 10 10 11 12 11 11 11 10 9 9 9 9 9 8 7 7 7 7 7 7 7 7 7 7 7 6 6 6 6 6 6 7 8 8 8 9 9 9 8 8 9
9 9 9 9 10 10 10 10 10 10 9 9 9 9 9 9 8 8 7 7 7 7 7 7 8 8 8 7 7 7 7 7 7 8 8 8 9 9 9 10 10 10 10
9 10 10 9 9 10 10 10 10 10 10 10 10 10 10 10 9 9 9 9 9 8 8 8 8 9 9 9 9 9 8 8 8 8 9 9 9 10 10 10 11 11 10
10 10 10 10 10 10 10 10 10 10 10 10 10 10 9 10 10 10 10 10 10 10 10 9 9 9 9 9 10 9 9 9 9 9 9 10 10 11 11 11 11 11 11
10 11 10 10 11 10 10 10 11 10 11 11 10 10 10 11 11 11 11 11 11 11 11 11 10 10 11 11 10 10 10 11 10 10 10 11 11 11 12 12 13 13 13
11 12 11 12 12 11 11 11 11 11 11 12 12 11 11 11 12 11 12 12 12 12 12 11 11 11 11 11 11 11 11 11 11 11 11 12 12 12 13 13 13 14 14
12 12 12 12 12 12 12 11 12 12 11 12 12 12 12 12 12 12 12 12 13 13 13 12 12 12 12 12 12 12 13 13 13 13 13 13 13 14 14 15 16 16 16
12 12 13 13 13 13 13 12 13 13 13 13 13 13 12 12 12 12 12 13 13 14 14 14 14 14 14 14 14 14 14 15 15 15 15 15 15 16 16 17 18 19 19
12 13 13 14 14 15 14 14 14 14 15 15 14 13 13 13 13 13 14 14 15 15 15 16 16 16 16 16 16 16 16 16 17 16 17 17 18 18 19 19 20 22 22
13 14 14 14 15 15 15 15 15 15 15 15 15 15 14 14 14 15 16 16 17 17 17 17 18 17 17 17 17 17 18 18 18 18 19 19 19 20 21 22 23 24 24
15 15 16 15 15 15 15 16 16 16 16 16 16 16 15 15 16 16 16 17 17 17 18 18 19 19 19 19 20 20 19 20 20 21 21 22 22 23 24 24 25 26 26
15 16 16 17 17 17 17 16 16 15 16 16 16 17 17 17 17 17 17 18 18 18 19 20 20 21 21 21 21 21 22 22 23 23 24 24 25 26 27 27 27 28 28
15 15 16 17 17 17 16 16 16 16 17 17 18 18 18 18 18 18 19 19 19 20 21 21 22 22 22 22 22 23 23 24 25 26 26 27 28 28 29 30 31 31 32
15 16 17 17 16 17 17 18 19 18 18 18 18 19 19 19 19 20 20 20 20 21 22 23 23 22 23 24 25 25 26 26 27 28 29 29 30 30 31 32 33 34 34
16 16 17 17 17 18 18 19 20 20 20 20 20 20 21 21 21 22 22 22 23 23 23 23 23 23 25 26 27 28 28 29 29 31 32 32 32 33 33 34 34 35 36
17 17 17 17 18 18 19 20 20 21 21 21 22 22 22 22 23 23 23 23 24 23 24 24 25 26 27 28 29 31 32 32 32 33 34 35 35 36 36 36 36 37 37
Wind_Direction
285 279 270 262 266 270 276 287 293 294 297 304 313 323 313 304 304 293 309 305 299 295 297 312 322 306 317 320 320 319 318 323 329 327 317 297 292 279 267 266 261 262 266
281 274 275 267 257 252 258 275 287 294 298 297 292 301 305 304 305 296 297 295 285 290 301 299 294 295 299 314 320 319 303 304 304 305 310 295 282 287 282 273 266 271 276
274 271 262 258 254 254 254 262 271 282 290 293 289 297 303 304 304 293 295 293 280 279 284 293 286 287 297 296 303 301 294 298 291 283 289 289 273 273 291 287 269 274 279
266 266 261 259 256 254 255 253 258 264 275 285 287 290 296 301 299 292 290 292 288 286 284 286 288 289 295 290 286 286 279 280 284 274 278 285 272 271 280 289 276 275 281
264 264 262 264 257 256 255 252 253 257 267 274 277 277 280 289 293 286 285 287 287 296 291 290 294 294 297 288 280 277 272 272 274 270 270 273 269 269 271 281 285 278 282
262 262 259 257 259 259 255 254 255 252 258 265 271 273 277 276 283 283 284 276 279 287 288 286 286 293 300 294 287 275 269 268 266 261 264 266 264 268 270 276 283 284 283
259 261 256 254 256 258 256 257 256 253 255 260 263 268 273 270 270 275 280 275 273 276 280 283 281 284 294 294 287 273 266 265 258 255 260 262 259 264 266 269 275 282 283
259 261 254 250 252 255 255 255 257 256 257 259 259 259 259 262 266 270 273 273 270 273 277 279 280 284 286 288 285 273 265 266 259 256 257 260 261 262 264 268 273 278 276
259 259 252 252 251 252 253 253 254 252 253 255 256 259 259 258 261 266 267 266 268 272 275 277 278 281 286 282 282 276 263 269 265 264 262 263 264 265 266 268 269 273 270
256 255 253 254 252 251 251 249 249 250 248 251 255 260 262 257 258 262 262 259 264 268 271 276 274 275 280 282 283 278 270 272 268 270 269 270 269 267 266 267 266 265 265
253 255 254 255 254 249 248 248 247 246 247 253 259 261 260 257 259 259 258 261 262 262 266 273 275 275 277 278 277 276 276 274 270 271 274 274 272 267 265 263 263 262 261
251 250 252 253 250 243 241 245 246 245 248 252 257 260 261 257 256 254 254 257 259 261 268 276 278 277 274 272 272 277 274 275 274 274 276 276 273 270 264 265 263 264 262
249 251 250 250 246 239 240 244 246 247 251 254 257 261 261 259 259 255 252 254 256 262 269 277 281 278 275 274 273 277 275 277 277 278 277 276 274 272 267 266 262 263 264
245 246 248 248 243 242 243 243 246 250 252 254 257 261 262 262 260 256 252 252 256 261 267 272 276 276 276 276 276 274 275 274 275 274 275 277 276 275 271 269 265 264 267
246 242 242 244 243 242 242 245 247 250 253 252 255 263 266 264 262 259 256 255 255 258 263 271 273 275 276 274 274 272 272 272 272 274 273 275 277 275 272 271 268 268 269
249 245 241 243 242 241 245 249 251 252 253 252 256 261 265 266 266 260 257 257 258 261 264 267 269 273 276 274 273 273 272 274 274 274 273 274 277 276 274 273 272 272 272
251 246 242 242 241 244 249 251 254 257 256 256 257 259 265 267 266 262 258 259 261 263 264 266 269 271 273 276 274 272 273 272 274 277 277 276 276 275 275 275 275 274 274
249 248 246 243 241 245 250 253 254 255 256 256 258 260 264 266 265 261 260 260 262 264 265 268 269 269 271 274 274 274 273 273 274 275 276 277 277 278 276 276 276 275 275
251 249 251 248 245 248 251 254 255 254 254 256 258 259 263 265 265 263 263 263 265 267 267 267 268 269 270 271 271 273 273 274 275 275 277 278 279 279 278 277 278 278 278
252 251 252 252 251 252 253 254 256 255 255 256 259 260 262 264 265 265 266 266 267 270 269 267 266 269 270 270 270 273 273 276 277 277 279 279 280 280 280 281 281 282 281
252 251 251 252 254 256 256 255 256 256 257 258 260 260 260 264 266 266 268 269 270 270 270 269 268 268 270 270 271 273 274 275 278 278 279 280 280 280 281 283 283 283 282
254 254 250 252 255 257 256 254 254 255 258 258 263 264 264 266 268 268 271 273 273 272 272 271 270 269 270 270 272 272 273 275 278 280 281 281 281 282 282 283 283 282 282
259 256 252 252 253 253 253 253 252 255 260 261 264 265 266 266 268 270 272 274 276 274 274 276 273 270 270 272 273 274 276 277 278 280 282 283 283 282 283 284 285 284 284
260 258 254 254 255 253 254 254 253 256 259 262 264 265 266 267 270 272 273 274 276 275 276 276 275 273 274 274 275 276 278 281 282 282 283 284 283 283 284 285 284 284 284
262 257 255 255 256 256 254 253 257 258 261 262 264 266 269 271 272 271 272 275 278 277 278 277 275 275 276 277 278 279 281 282 282 283 284 284 283 284 285 285 284 283 283
261 257 257 259 258 257 256 257 259 260 261 263 265 268 270 272 272 272 273 275 277 277 277 277 278 278 278 279 280 280 282 282 283 285 286 286 285 285 285 285 284 284 284
Height
5901 5901 5901 5901 5901 5901 5901 5901 5901 5901 5900 5900 5900 5900 5899 5898 5897 5898 5897 5896 5896 5896 5895 5895 5894 5894 5893 5893 5892 5891 5891 5890 5890 5889 5889 5888 5888 5888 5887 5887 5887 5886 5886
5900 5900 5900 5900 5900 5900 5900 5900 5900 5900 5900 5900 5899 5899 5899 5898 5898 5897 5896 5896 5896 5895 5895 5894 5894 5893 5893 5892 5892 5891 5890 5890 5890 5889 5888 5888 5887 5887 5887 5886 5886 5886 5885
5899 5899 5899 5899 5899 5899 5899 5900 5900 5899 5899 5899 5899 5898 5898 5898 5897 5896 5896 5895 5895 5894 5894 5893 5893 5892 5892 5891 5891 5890 5890 5889 5889 5888 5888 5887 5887 5886 5886 5886 5885 5885 5884
5897 5898 5898 5898 5898 5898 5898 5898 5899 5899 5898 5898 5898 5897 5897 5897 5896 5896 5895 5895 5894 5894 5893 5893 5892 5892 5891 5890 5890 5889 5889 5889 5888 5887 5887 5886 5886 5886 5885 5885 5884 5884 5883
5896 5896 5896 5896 5896 5897 5897 5897 5897 5897 5897 5897 5897 5897 5896 5896 5896 5895 5895 5894 5893 5893 5892 5892 5891 5891 5890 5889 5889 5888 5888 5887 5887 5886 5886 5885 5885 5885 5884 5884 5883 5882 5882
5894 5894 5894 5894 5895 5895 5895 5895 5895 5896 5896 5896 5896 5896 5896 5895 5895 5894 5894 5893 5893 5892 5892 5891 5890 5890 5889 5888 5887 5886 5886 5886 5885 5885 5885 5884 5884 5883 5883 5883 5882 5881 5880
5891 5892 5892 5892 5893 5893 5893 5893 5894 5894 5894 5894 5894 5894 5894 5894 5894 5893 5893 5892 5892 5891 5890 5890 5889 5888 5887 5887 5886 5885 5885 5884 5884 5884 5883 5883 5882 5882 5882 5881 5881 5880 5879
5889 5889 5890 5890 5891 5891 5891 5892 5892 5892 5893 5893 5893 5893 5893 5893 5892 5892 5891 5891 5890 5890 5889 5888 5888 5887 5886 5885 5884 5884 5883 5883 5882 5882 5882 5881 5881 5880 5880 5879 5879 5878 5878
5886 5886 5887 5888 5888 5889 5889 5890 5890 5890 5891 5891 5891 5891 5891 5891 5890 5890 5890 5889 5888 5888 5887 5887 5886 5886 5885 5884 5883 5882 5882 5881 5881 5880 5880 5879 5879 5878 5878 5877 5877 5876 5876
5883 5884 5884 5885 5886 5886 5887 5887 5888 5888 5889 5889 5889 5889 5889 5889 5888 5888 5888 5887 5887 5886 5886 5885 5885 5884 5883 5883 5882 5881 5881 5880 5879 5879 5878 5877 5877 5876 5876 5875 5875 5874 5874
5881 5881 5882 5882 5883 5883 5884 5885 5885 5886 5886 5886 5887 5887 5887 5887 5886 5886 5886 5886 5885 5885 5884 5884 5883 5882 5882 5881 5881 5880 5879 5878 5878 5877 5876 5875 5875 5874 5873 5873 5872 5872 5872
5878 5879 5879 5880 5880 5881 5882 5882 5883 5883 5884 5884 5884 5884 5884 5884 5884 5884 5884 5884 5884 5883 5883 5882 5881 5881 5880 5879 5879 5878 5877 5876 5876 5875 5874 5873 5872 5872 5871 5870 5870 5870 5869
5876 5877 5877 5877 5878 5878 5879 5880 5880 5881 5881 5882 5882 5882 5882 5882 5882 5882 5882 5882 5881 5881 5881 5880 5879 5879 5878 5877 5877 5876 5875 5874 5874 5873 5872 5871 5870 5869 5868 5868 5867 5867 5866
5873 5874 5875 5875 5875 5876 5877 5877 5878 5878 5879 5879 5879 5879 5879 5879 5879 5879 5879 5879 5879 5879 5878 5878 5877 5876 5876 5875 5874 5873 5873 5872 5871 5870 5869 5868 5867 5866 5865 5865 5864 5864 5864
5870 5871 5872 5872 5873 5873 5874 5874 5875 5875 5876 5876 5876 5876 5876 5876 5876 5876 5876 5876 5877 5876 5876 5875 5874 5874 5873 5872 5871 5870 5870 5869 5868 5867 5866 5865 5864 5863 5863 5862 5861 5861 5860
5867 5868 5869 5869 5870 5870 5871 5871 5872 5872 5872 5873 5873 5873 5873 5873 5873 5872 5872 5873 5873 5873 5873 5872 5872 5871 5870 5869 5868 5868 5867 5866 5865 5864 5863 5862 5861 5860 5859 5858 5858 5857 5856
5864 5864 5865 5866 5866 5867 5868 5868 5869 5869 5869 5869 5869 5869 5869 5869 5869 5869 5869 5869 5869 5869 5869 5869 5868 5868 5867 5866 5865 5864 5863 5862 5861 5860 5859 5858 5857 5856 5855 5854 5853 5853 5852
5861 5861 5862 5862 5863 5864 5864 5865 5865 5865 5865 5866 5866 5866 5866 5865 5865 5865 5865 5865 5865 5865 5865 5864 5864 5864 5863 5862 5862 5861 5860 5859 5858 5857 5855 5854 5853 5852 5851 5850 5849 5848 5847
5857 5858 5858 5859 5859 5860 5860 5861 5861 5862 5862 5862 5862 5862 5862 5862 5862 5862 5861 5861 5861 5861 5860 5860 5859 5859 5859 5858 5857 5856 5855 5854 5853 5852 5851 5850 5849 5847 5846 5845 5844 5842 5841
5854 5854 5854 5855 5855 5855 5856 5856 5857 5857 5857 5858 5858 5858 5858 5857 5858 5858 5857 5857 5856 5856 5855 5855 5854 5854 5854 5853 5852 5852 5851 5850 5849 5848 5846 5845 5844 5842 5841 5839 5838 5837 5835
5850 5850 5850 5851 5851 5851 5851 5852 5853 5853 5853 5853 5853 5853 5853 5853 5853 5853 5853 5852 5851 5851 5850 5850 5849 5849 5848 5848 5847 5846 5846 5845 5844 5842 5841 5840 5838 5837 5835 5833 5831 5830 5828
5845 5845 5846 5846 5847 5847 5847 5848 5848 5848 5849 5849 5849 5849 5849 5849 5848 5848 5848 5847 5846 5846 5845 5844 5844 5843 5843 5842 5841 5841 5840 5839 5838 5836 5835 5833 5831 5830 5828 5826 5824 5822 5820
5841 5841 5841 5841 5842 5842 5842 5843 5843 5844 5844 5844 5844 5844 5844 5844 5843 5843 5843 5842 5841 5840 5840 5839 5838 5837 5836 5836 5835 5834 5833 5832 5830 5829 5828 5826 5824 5822 5820 5818 5816 5814 5812
5837 5837 5837 5837 5837 5837 5838 5838 5838 5839 5839 5839 5839 5839 5839 5838 5838 5838 5837 5837 5836 5835 5834 5833 5832 5831 5830 5829 5828 5827 5826 5825 5823 5821 5819 5818 5816 5814 5812 5809 5807 5805 5802
5832 5832 5832 5832 5833 5833 5833 5833 5833 5833 5833 5833 5833 5833 5833 5832 5832 5831 5831 5830 5830 5829 5827 5826 5825 5824 5823 5822 5821 5820 5818 5817 5815 5813 5810 5809 5807 5804 5802 5800 5797 5794 5792
5827 5827 5827 5827 5827 5827 5828 5828 5828 5828 5828 5828 5827 5827 5827 5826 5825 5824 5824 5823 5823 5821 5820 5819 5818 5817 5816 5814 5813 5811 5809 5808 5806 5804 5801 5799 5797 5794 5792 5789 5786 5783 5780